Location: �clusier
(49.9361°N, 2.7869°E)
Time: 16:21:19
(UTC+00:00)

ATLAS CENTAUR R/B - Pass Details

Date: 27 October 2021
Orbit: 452 x 689 km, 64.7° (Epoch: 29 November)

Event Time Altitude Azimuth Distance (km) Brightness Sun altitude
Exits shadow 03:59:37 17° 352° (N) 1,533 3.6 -24.7°
Drops below altitude 10° 04:01:54 10° 22° (NNE) 1,990 4.5 -24.4°
Sets 04:04:55 0° 41° (NE) 2,948 5.8 -23.9°
